Regional Weather Roundup
Issued by NWS

Home | Current Version | Previous Version | Graphics & Text | Print | Product List | Glossary On
Versions: 1 2 3 4 5 6 7 8 9 10 11 12 13 14 15 16 17 18 19 20 21 22 23 24 25 26 27 28 29 30 31 32 33 34 35 36 37 38 39 40 41 42 43 44 45 46 47 48 49 50
000
ASUS45 KBOU 221307
RWRCO

WEATHER ROUNDUP FOR COLORADO
NATIONAL WEATHER SERVICE DENVER/BOULDER CO
700 AM MDT FRI AUG 22 2014

NOTE: "FAIR" INDICATES FEW OR NO CLOUDS BELOW 12000 FEET WITH NO
SIGNIFICANT WEATHER AND/OR OBSTRUCTIONS TO VISIBILITY.

COZ001>005-013-030-031-221400-
...NORTHWEST COLORADO...

CITY           SKY/WX    TMP DP  RH WIND       PRES   REMARKS
CRAIG          CLOUDY    56  48  74 E5        30.20R
HAYDEN         CLOUDY    54  45  71 E16       30.20F
MEEKER         CLOUDY    55  46  71 NE7       30.20S
MOUNT WERNER   NOT AVBL
STEAMBOAT SPGS CLOUDY    52  48  86 CALM      30.26R
WALDEN         CLOUDY    46  43  87 CALM      30.33R
$$

COZ006>008-011-221400-
...WEST CENTRAL VALLEYS...

CITY           SKY/WX    TMP DP  RH WIND       PRES   REMARKS
GRAND JUNCTION MOCLDY    63  51  65 SE13      30.12R
MONTROSE       CLOUDY    59  55  87 S3        30.22S
EAGLE          CLOUDY    55  54  94 CALM      30.30R
RIFLE          CLOUDY    62  49  62 E14       30.19S
DELTA          RAIN      63  54  72 NE7       30.19F
NUCLA          NOT AVBL
$$

COZ017>023-064>068-221400-
...SOUTHWEST COLORADO...

CITY           SKY/WX    TMP DP  RH WIND       PRES   REMARKS
DURANGO        CLOUDY    56  52  86 SE3       30.25R
CORTEZ         CLOUDY    57  55  93 CALM      30.20F
PAGOSA SPRINGS CLOUDY    54  42  63 CALM      30.30R
TELLURIDE      CLOUDY    52  45  76 NE3       30.37S
WOLF CREEK PAS NOT AVBL
$$

COZ009-010-012-014-032>034-037-058>063-221400-
...CENTRAL COLORADO...

CITY           SKY/WX    TMP DP  RH WIND       PRES   REMARKS
ASPEN          LGT RAIN  52  49  89 CALM      30.34R
BUENA VISTA    MOCLDY    54  42  64 NW5       30.31S
COPPER MTN     CLOUDY    45  37  76 W10       30.56S
BERTHOUD PASS  CLOUDY    36  34  93 N8        30.60F
COTTONWOOD PAS MOCLDY    54  36  50 W3        30.42F
GUNNISON       CLOUDY    54  43  66 NW5       30.34S
KREMMLING      DRIZZLE   52  46  82 E3        30.33R
LEADVILLE      CLOUDY    46  40  79 NW5       30.43R
MONARCH PASS   MOCLDY    41  36  81 SW14      30.66R
SALIDA         MOCLDY    57  44  61 W7        30.36R
SUNLIGHT       LGT RAIN  45  43  93 CALM      30.49S
WILKERSON PASS NOT AVBL
$$

COZ069>075-221400-
...SAN LUIS VALLEY/SANGRE DE CRISTO MOUNTAINS...

CITY           SKY/WX    TMP DP  RH WIND       PRES   REMARKS
ALAMOSA        CLOUDY    53  45  74 CALM      30.27R
LA VETA PASS   NOT AVBL
SAGUACHE       CLOUDY    59  39  47 NW13      30.31R
$$

COZ035-036-038>040-221400-
...NORTHERN COLORADO FRONT RANGE...

CITY           SKY/WX    TMP DP  RH WIND       PRES   REMARKS
DENVER INTL AP CLOUDY    62  55  77 SW6       30.17S
DMNS CITY PARK   N/A     64  57  78 S1        30.17F
AURORA         CLOUDY    61  59  94 CALM      30.20R
FRONT RANGE AP NOT AVBL
ERIE MUNI ARPT CLOUDY    63  60  91 CALM      30.16R
BOULDER MUN AP LGT RAIN  61  59  94 CALM      30.17R
CENTENNIAL     CLOUDY    61  55  81 E3        30.20R
BROOMFIELD     CLOUDY    63  59  88 CALM      30.19R
FORT COLLINS   CLOUDY    61  55  82 S5        30.18R
LONGMONT       CLOUDY    62  57  83 CALM      30.18R HAZE
$$

COZ041-046-047-076>085-087-088-221400-
...PIKES PEAK/PALMER DIVIDE AND SOUTHERN FOOTHILLS...

CITY           SKY/WX    TMP DP  RH WIND       PRES   REMARKS
COLO. SPRINGS  CLOUDY    62  50  64 NW8       30.21R
A. F. ACADEMY  CLOUDY    58  49  72 N8        30.24R
ELLICOTT       CLOUDY    61  52  72 MISG      30.17R
FALCON         CLOUDY    58  51  76 N9        30.25R
FORT CARSON    NOT AVBL
LIMON          CLOUDY    60  56  86 N10       30.15R
MONUMENT HILL  CLOUDY    54  50  87 W5        30.25R
TRINIDAD       MOCLDY    65  51  60 NW8       30.17R
$$

COZ042>045-048>051-090-091-221400-
...NORTHEAST COLORADO...

CITY           SKY/WX    TMP DP  RH WIND       PRES   REMARKS
GREELEY ARPT   CLOUDY    61  55  82 CALM      30.16R
AKRON          CLOUDY    60  58  92 NW16      30.13F
BURLINGTON     MOCLDY    67  56  67 NE12G23   30.06F
WRAY           LGT RAIN  64  61  90 N14G24    30.05F
STERLING       LGT RAIN  64  63  94 E7        30.10S
HOLYOKE        NOT AVBL
FORT MORGAN    CLOUDY    62  59  90 NE5       30.14R
$$

COZ086-089-092>099-221400-
...SOUTHEAST COLORADO...

CITY           SKY/WX    TMP DP  RH WIND       PRES   REMARKS
PUEBLO         CLOUDY    69  53  56 N14       30.11R
LA JUNTA       PTCLDY    68  55  63 N13       30.05R
LAMAR          CLEAR     64  58  80 NW5       29.99R
SPRINGFIELD      N/A     67  51  56 SW8       30.02R
$$



USA.gov is the U.S. government's official web portal to all federal, state and local government web resources and services.